Regional Weather Roundup
Issued by NWS Kansas City/Pleasant Hill, MO

Home | Current Version | Previous Version | Text Only | Print | Product List | Glossary On
Versions: 1 2 3 4 5 6 7 8 9 10 11 12 13 14 15 16 17 18 19 20 21 22 23 24 25 26 27 28 29 30 31 32 33 34 35 36 37 38 39 40 41 42 43 44 45 46 47 48 49 50
000
ASUS43 KEAX 241010
RWREAX

WEATHER ROUNDUP FOR EASTERN KANSAS AND NORTHWEST MISSOURI
NATIONAL WEATHER SERVICE KANSAS CITY/PLEASANT HILL MO
400 AM CST MON NOV 24 2014

KSZ040-057-103>105-MOZ028-029-037-043-241100-
...KANSAS CITY METROPOLITAN AREA...

CITY           SKY/WX    TMP DP  RH WIND       PRES   REMARKS
K.C. INTL      CLOUDY    34  23  64 NW14G23   29.58R WCI  25
K.C. DOWNTOWN  CLOUDY    37  24  59 NW14G24   29.59R WCI  28
LEES SUMMIT    NOT AVBL
OLATHE - IXD   CLOUDY    35  27  72 W16       29.61R WCI  25
OLATHE - OJC   CLOUDY    36  28  73 W10G17    29.59R WCI  28
LAWRENCE       PTCLDY    34  25  69 W14       29.63R WCI  25

$$

MOZ001>008-011>017-020>025-030>033-038>040-044>046-053-054-241100-
...NORTHERN AND CENTRAL MISSOURI...

CITY           SKY/WX    TMP DP  RH WIND       PRES   REMARKS
ST. JOSEPH     CLOUDY    32  23  69 NW15      29.58R WCI  22
MOSBY          PTSUNNY   34  25  69 W15G23    29.57R WCI  24
WARRENSBURG    MOCLDY    34  27  75 W17G28    29.57R WCI  23
WHITEMAN AFB   PTCLDY    36  26  68 W21G28    29.55R WCI  24
CLINTON        CLOUDY    39  32  75 NW16G24   29.58R WCI  30
SEDALIA        CLOUDY    37  28  70 NW18G31   29.53R WCI  27
WARSAW         NOT AVBL
MARSHALL       CLOUDY    37  30  75 W18G30    29.52R WCI  27
CHILLICOTHE      N/A     36  26  67 W15G29    29.51R WCI  27
KIRKSVILLE     CLOUDY    34  29  82 W17G28    29.42R WCI  23

$$

MOZ041-047>049-056>058-063>065-088>090-097-241100-
...EASTERN AND SOUTHERN MISSOURI...

CITY           SKY/WX    TMP DP  RH WIND       PRES   REMARKS
ST. LOUIS INTL LGT RAIN  42  37  82 W23G32    29.36R WCI  33
SPIRIT OF STL  LGT RAIN  38  34  85 W21G36    29.39R WCI  28
COLUMBIA       CLOUDY    38  36  92 W13       29.46R WCI  30
JEFFERSON CITY CLOUDY    40  36  86 W10       29.48S WCI  33
ROLLA          CLOUDY    36  34  92 W12       29.45S WCI  28
LEBANON        MOCLDY    37  36  93 W15       29.53R WCI  28
OSAGE BEACH    CLOUDY    41  36  81 W15G22    29.50S WCI  33
SPRINGFIELD    PTCLDY    39  32  76 W18G25    29.59R WCI  30
BRANSON        PTCLDY    39  32  75 W13G24    29.64R WCI  32
NEVADA         MOCLDY    37  28  70 W16G25    29.63R WCI  28
JOPLIN         PTCLDY    40  32  73 W16G26    29.69R WCI  31
WEST PLAINS    CLOUDY    39  34  82 W12       29.56R WCI  32

$$

IAZ060-094-KSZ022-034>040-054-083-096-NEZ052-066-093-241100-
...KANSAS...SOUTHEAST NEBRASKA AND IOWA...

CITY           SKY/WX    TMP DP  RH WIND       PRES   REMARKS
TOPEKA         CLEAR     36  23  59 NW18G30   29.65R WCI  26
MANHATTAN      PTCLDY    34  26  72 W7        29.67S WCI  28
EMPORIA        PTCLDY    32  27  81 W9        29.68R WCI  24
CHANUTE        PTCLDY    38  28  67 NW13      29.70R WCI  30
WICHITA        CLEAR     37  22  54 W15       29.77R WCI  28
OMAHA          CLOUDY    30  19  63 NW18G31   29.56S WCI  18
LINCOLN        CLOUDY    33  21  61 NW17G25   29.61R WCI  22
FALLS CITY     CLOUDY    33  24  69 NW16      29.58R WCI  23
LAMONI         CLOUDY    30  23  75 NW20G33   29.46R WCI  17
DES MOINES     CLOUDY    31  23  72 NW28G38   29.42R WCI  17

$$



USA.gov is the U.S. government's official web portal to all federal, state and local government web resources and services.